Find Vela II-A

NORAD ID: 836 Int'l Des: 1964-040 Owner: AFSSD Country: US operational
HEOELLIPTICALHEO_ELLIPTICAL

当前视图

正在加载3D地球...

About Vela II-A

Vela II-A (NORAD 836) is a satellite by AFSSD of US. It operates in HEO, ELLIPTICAL, HEO_ELLIPTICAL orbit

即将过境

Passes for default location (London). Set your location on the main map for personalized predictions.

高度历史

Loading altitude history...

两行轨道根数

1 836U 64040A 26196.79402034 .00000342 00000-0 00000+0 0 9992
2 836 53.0181 117.8280 5205583 275.2579 0.4357 0.23920571 11065
Epoch: Jul 15, 2026 • Age: -41 hours

当前状态

高度 155283.4 km
远地点 / 近地点 N/A
速度 1.14 km/s
星下点 49.49°N, 88.9°W
类型 other

Most Searched